FW0837 Weather Reports


time (UTC)temp
F
wind
direction
speed
knots
gust
knots
rain 1hr
in
rain 24hr
in
rain mn
in
humidity
%
barometer
mb
20260507085542 47 257 2.6 6.1 0.00 0.26 0.01 87 1007.3
20260507085042 47 258 1.7 5.2 0.00 0.26 0.01 87 1007.3
20260507084553 47 266 0.9 6.1 0.00 0.26 0.01 87 1007.6
20260507084043 47 265 2.6 7.8 0.00 0.26 0.01 87 1007.4
20260507083540 47 250 1.7 7.0 0.00 0.26 0.01 87 1007.2
20260507083039 48 241 1.7 6.1 0.00 0.26 0.01 86 1007.2
20260507082541 48 241 1.7 7.0 0.00 0.26 0.01 86 1007.0
20260507082037 48 259 2.6 7.8 0.00 0.26 0.01 86 1007.1
20260507081540 48 257 2.6 7.8 0.00 0.26 0.01 86 1007.2
20260507081039 49 243 2.6 7.8 0.00 0.26 0.01 85 1007.1
20260507080535 49 280 1.7 7.8 0.00 0.26 0.01 85 1006.9
20260507080036 49 250 2.6 7.8 0.00 0.26 0.01 85 1007.2
20260507075534 49 241 1.7 7.8 0.00 0.26 0.01 85 1007.2
20260507075034 49 260 3.5 7.8 0.00 0.26 0.01 85 1007.3
20260507074533 49 217 2.6 10.4 0.00 0.26 0.01 85 1007.4
20260507074032 49 301 4.3 10.4 0.00 0.26 0.01 85 1007.2
20260507073531 49 254 2.6 9.6 0.00 0.26 0.01 86 1006.9
20260507073031 49 264 3.5 8.7 0.00 0.26 0.01 86 1006.8
20260507072531 49 268 2.6 8.7 0.00 0.26 0.01 86 1006.9
20260507072030 50 261 3.5 8.7 0.00 0.26 0.01 86 1006.9
20260507071529 50 224 3.5 7.8 0.00 0.26 0.01 87 1006.7
20260507071029 50 285 2.6 7.8 0.00 0.26 0.01 87 1006.8
20260507070528 50 303 3.5 7.8 0.00 0.26 0.01 86 1007.0
20260507070031 50 289 2.6 7.0 0.00 0.26 0.01 86 1007.0
20260507065528 50 272 1.7 8.7 0.00 0.26 0.01 86 1006.8
20260507065027 50 222 2.6 8.7 0.00 0.26 0.01 86 1006.6
20260507064527 50 264 1.7 7.8 0.00 0.26 0.01 86 1006.8
20260507064026 50 265 3.5 7.8 0.00 0.26 0.01 86 1006.7
20260507063527 50 241 1.7 7.0 0.00 0.26 0.01 86 1006.9
20260507063024 50 248 1.7 7.0 0.00 0.26 0.01 86 1006.6
20260507062524 50 280 3.5 7.0 0.00 0.26 0.01 86 1006.6
20260507062024 50 272 1.7 7.8 0.00 0.26 0.01 86 1006.7
20260507061524 50 243 2.6 7.8 0.00 0.26 0.01 86 1006.7
20260507061022 50 325 2.6 8.7 0.00 0.26 0.01 87 1006.7
20260507060521 50 254 3.5 12.2 0.00 0.26 0.01 87 1006.7
20260507060021 50 277 4.3 12.2 0.00 0.26 0.01 88 1006.8
20260507055521 50 257 2.6 8.7 0.00 0.26 0.01 88 1006.9
20260507055022 51 281 1.7 9.6 0.00 0.26 0.01 88 1007.0
20260507054527 51 300 4.3 9.6 0.00 0.26 0.01 88 1007.0
20260507054019 51 258 2.6 9.6 0.00 0.26 0.01 88 1007.1
20260507053518 51 244 2.6 9.6 0.00 0.26 0.01 88 1007.2
20260507053018 51 253 2.6 6.1 0.00 0.26 0.01 88 1007.1
20260507052517 51 241 1.7 5.2 0.00 0.26 0.01 89 1006.8
20260507052017 51 251 0.9 7.0 0.00 0.26 0.01 89 1007.1
20260507051517 51 222 2.6 7.0 0.00 0.26 0.01 89 1007.3
20260507051016 51 252 0.9 6.1 0.00 0.26 0.01 89 1007.1
20260507050516 51 238 2.6 7.0 0.00 0.26 0.01 89 1006.9
20260507050021 51 245 1.7 7.8 0.01 0.26 0.01 89 1006.9
20260507045516 51 275 2.6 11.3 0.01 0.26 0.01 89 1006.9
20260507045015 51 249 2.6 11.3 0.01 0.26 0.01 90 1006.9
20260507044515 51 287 4.3 11.3 0.01 0.26 0.01 90 1006.8
20260507044013 52 253 2.6 7.8 0.01 0.26 0.01 90 1006.8
20260507043513 52 261 2.6 7.8 0.01 0.26 0.01 90 1006.8
20260507043020 52 291 2.6 7.8 0.01 0.26 0.01 90 1006.9
20260507042510 52 309 1.7 11.3 0.01 0.26 0.01 90 1007.0
20260507042011 52 257 4.3 11.3 0.01 0.26 0.01 90 1007.1
20260507041508 53 256 3.5 10.4 0.01 0.26 0.01 90 1007.1
20260507041007 53 226 2.6 10.4 0.01 0.26 0.01 90 1007.3
20260507040507 54 258 3.5 10.4 0.00 0.25 0.00 90 1007.2
20260507040005 54 303 3.5 12.2 0.00 0.25 0.00 90 1007.0
20260507035503 55 359 3.5 12.2 0.00 0.25 0.25 91 1006.8
20260507035001 56 283 2.6 7.8 0.00 0.25 0.25 91 1006.6
20260507034601 56 347 1.7 7.8 0.00 0.25 0.25 91 1006.4
20260507034059 56 253 1.7 9.6 0.00 0.25 0.25 91 1006.3
20260507033559 56 231 3.5 11.3 0.00 0.25 0.25 92 1006.1
20260507033102 57 285 3.5 11.3 0.00 0.25 0.25 91 1006.0
20260507032556 57 359 2.6 9.6 0.00 0.25 0.25 92 1006.0
20260507032055 57 359 3.5 16.5 0.00 0.25 0.25 92 1005.8
20260507031555 57 264 6.1 16.5 0.00 0.25 0.25 92 1005.9
20260507031053 58 241 6.1 12.2 0.00 0.25 0.25 92 1005.9
20260507030557 58 253 5.2 11.3 0.00 0.25 0.25 92 1005.8
20260507030052 59 241 2.6 8.7 0.00 0.25 0.25 92 1005.8
20260507025551 58 237 2.6 8.7 0.00 0.25 0.25 92 1005.6
20260507025051 58 225 2.6 7.8 0.00 0.25 0.25 92 1005.6
20260507024604 58 225 2.6 7.8 0.00 0.25 0.25 92 1005.6
20260507024053 58 195 3.5 7.8 0.00 0.25 0.25 92 1005.5
20260507023554 58 235 0.9 7.8 0.00 0.25 0.25 92 1005.5
20260507023052 59 218 2.6 7.0 0.00 0.25 0.25 92 1005.5
20260507022555 58 233 2.6 7.0 0.00 0.25 0.25 92 1005.5
20260507022049 58 214 1.7 6.1 0.00 0.25 0.25 92 1005.3
20260507021549 58 237 3.5 9.6 0.00 0.25 0.25 92 1005.3
20260507021048 58 226 2.6 9.6 0.00 0.25 0.25 92 1005.3
20260507020548 58 224 3.5 7.8 0.00 0.25 0.25 92 1005.3
20260507020106 58 176 1.7 8.7 0.00 0.25 0.25 92 1005.2
20260507015547 58 164 0.9 8.7 0.00 0.25 0.25 92 1005.4
20260507015047 58 200 2.6 8.7 0.00 0.25 0.25 92 1005.4
20260507014552 58 196 1.7 7.8 0.00 0.25 0.25 92 1005.5
20260507014046 58 226 2.6 7.0 0.00 0.25 0.25 92 1005.5
20260507013546 58 227 2.6 7.0 0.00 0.25 0.25 92 1005.4
20260507013052 58 188 2.6 12.2 0.00 0.25 0.25 92 1005.5
20260507012542 59 239 2.6 12.2 0.00 0.25 0.25 92 1005.6
20260507012042 59 149 3.5 7.0 0.00 0.25 0.25 92 1005.5
20260507011542 59 193 2.6 8.7 0.00 0.25 0.25 92 1005.6
20260507011042 59 205 2.6 8.7 0.00 0.25 0.25 92 1005.7
20260507010541 59 234 0.9 8.7 0.00 0.25 0.25 92 1005.6
20260507010042 59 188 0.9 6.1 0.00 0.25 0.25 92 1005.6
20260507005541 59 216 2.6 9.6 0.00 0.25 0.25 92 1005.7
20260507005043 59 159 3.5 9.6 0.00 0.25 0.25 92 1005.6
20260507004551 59 172 2.6 12.2 0.00 0.25 0.25 92 1005.6
20260507004041 59 162 3.5 7.8 0.00 0.25 0.25 92 1005.5
20260507003540 59 149 1.7 10.4 0.00 0.25 0.25 92 1005.3
20260507003044 59 199 3.5 10.4 0.00 0.25 0.25 92 1005.5
20260507002538 59 215 3.5 8.7 0.00 0.25 0.25 92 1005.5
20260507002037 59 187 1.7 7.0 0.01 0.25 0.25 92 1005.6
20260507001544 59 213 1.7 9.6 0.03 0.25 0.25 92 1005.5
20260507001036 59 233 3.5 9.6 0.05 0.25 0.25 92 1005.4
20260507000536 59 222 2.6 8.7 0.06 0.25 0.25 92 1005.4
20260507000036 59 167 1.7 8.7 0.06 0.25 0.25 91 1005.4
20260506235535 59 234 3.5 7.8 0.06 0.25 0.25 91 1005.2
20260506235035 59 172 1.7 7.8 0.07 0.25 0.25 91 1005.2
20260506234538 59 161 3.5 8.7 0.08 0.25 0.25 91 1005.2
20260506234034 59 218 3.5 8.7 0.09 0.25 0.25 91 1005.1
20260506233534 59 135 2.6 7.8 0.09 0.25 0.25 91 1005.2
20260506233034 59 206 0.9 12.2 0.10 0.25 0.25 91 1005.2
20260506232532 59 170 3.5 13.0 0.10 0.25 0.25 91 1005.3
20260506232033 59 242 2.6 9.6 0.09 0.24 0.24 91 1005.4
20260506231531 59 201 0.9 9.6 0.08 0.22 0.22 91 1005.4
20260506231031 59 197 0.9 9.6 0.06 0.20 0.20 91 1005.4
20260506230529 59 242 2.6 8.7 0.06 0.19 0.19 91 1005.6
20260506230029 59 193 2.6 8.7 0.06 0.19 0.19 91 1005.7
20260506225529 59 199 1.7 8.7 0.06 0.18 0.18 91 1005.6
20260506225029 59 183 2.6 8.7 0.07 0.18 0.18 91 1005.6
20260506224533 59 206 1.7 6.1 0.05 0.16 0.16 91 1005.5
20260506224029 59 175 2.6 11.3 0.05 0.16 0.16 90 1005.5
20260506223527 59 179 3.5 10.4 0.05 0.16 0.16 90 1005.6
20260506223036 59 187 2.6 10.4 0.04 0.15 0.15 90 1005.6
20260506222527 59 161 2.6 7.8 0.04 0.15 0.15 90 1005.7
20260506222029 60 183 1.7 7.8 0.04 0.15 0.15 90 1005.6
20260506221525 60 198 2.6 5.2 0.03 0.14 0.14 90 1005.8
20260506221024 60 114 0.9 5.2 0.03 0.14 0.14 90 1005.7
20260506220524 60 201 0.0 4.3 0.03 0.13 0.13 90 1005.8
20260506220025 60 158 0.9 6.1 0.02 0.12 0.12 90 1005.9
20260506215523 60 186 0.9 6.1 0.01 0.11 0.11 90 1006.1
20260506215029 60 180 0.9 7.0 0.02 0.11 0.11 90 1005.9
20260506214536 60 208 1.7 7.0 0.02 0.11 0.11 90 1005.8
20260506214023 60 189 2.6 10.4 0.02 0.11 0.11 90 1005.9
20260506213526 60 234 3.5 10.4 0.02 0.11 0.11 90 1006.0
20260506213023 60 183 1.7 7.8 0.03 0.11 0.11 89 1006.0
20260506212521 60 287 1.7 7.0 0.03 0.11 0.11 89 1006.2
20260506212020 60 191 1.7 9.6 0.04 0.11 0.11 89 1006.2
20260506211520 60 182 4.3 9.6 0.04 0.11 0.11 89 1006.2
20260506211019 60 147 2.6 7.8 0.05 0.11 0.11 89 1006.3
20260506210518 60 118 1.7 7.0 0.04 0.10 0.10 89 1006.4
20260506210021 60 210 2.6 7.0 0.05 0.10 0.10 89 1006.4
20260506205518 60 164 2.6 7.8 0.05 0.10 0.10 89 1006.5
20260506205018 61 191 2.6 12.2 0.04 0.09 0.09 89 1006.5
20260506204517 61 220 4.3 13.0 0.04 0.09 0.09 88 1006.6
20260506204016 61 237 4.3 13.0 0.04 0.09 0.09 88 1006.4
20260506203516 61 245 1.7 13.0 0.03 0.08 0.08 88 1006.5
20260506203019 62 258 1.7 9.6 0.04 0.08 0.08 87 1006.5
20260506202515 62 140 0.9 7.0 0.04 0.08 0.08 88 1006.4
20260506202014 62 175 1.7 7.8 0.04 0.07 0.07 87 1006.4
20260506201515 62 167 0.9 7.8 0.04 0.07 0.07 87 1006.4
20260506201019 62 198 3.5 9.6 0.04 0.06 0.06 87 1006.5
20260506200513 62 231 4.3 9.6 0.04 0.06 0.06 87 1006.4
20260506200013 62 232 1.7 6.1 0.04 0.05 0.05 86 1006.4
20260506195513 62 199 1.7 6.1 0.04 0.05 0.05 86 1006.4
20260506195013 63 218 2.6 8.7 0.04 0.05 0.05 86 1006.5
20260506194513 63 206 2.6 8.7 0.04 0.05 0.05 85 1006.3
20260506194017 63 191 2.6 5.2 0.05 0.05 0.05 84 1006.4
20260506193512 64 208 0.9 6.1 0.05 0.05 0.05 84 1006.6
20260506193014 64 185 0.9 6.1 0.04 0.04 0.04 83 1006.6
20260506192511 65 190 0.9 7.8 0.04 0.04 0.04 82 1006.2
20260506192010 65 269 0.9 7.8 0.03 0.03 0.03 81 1006.5
20260506191510 65 190 1.7 9.6 0.03 0.03 0.03 79 1006.6
20260506191010 66 218 3.5 9.6 0.02 0.02 0.02 77 1006.5
20260506190514 66 222 4.3 12.2 0.02 0.02 0.02 76 1006.6
20260506190013 67 233 5.2 13.0 0.01 0.01 0.01 74 1006.7
20260506185509 67 179 6.1 13.0 0.01 0.01 0.01 73 1006.6
20260506185013 68 272 1.7 12.2 0.01 0.01 0.01 72 1006.7
20260506184515 68 181 6.1 12.2 0.01 0.01 0.01 71 1006.5
20260506184013 69 241 2.6 8.7 0.00 0.00 0.00 70 1006.6
20260506183510 69 237 4.3 8.7 0.00 0.00 0.00 68 1006.6
20260506183018 69 239 2.6 10.4 0.00 0.00 0.00 67 1006.7
20260506182509 70 268 3.5 8.7 0.00 0.00 0.00 65 1006.6
20260506182012 70 208 4.3 15.6 0.00 0.00 0.00 64 1006.6
20260506181514 70 249 5.2 17.4 0.00 0.00 0.00 64 1006.5
20260506181011 71 215 5.2 14.8 0.00 0.00 0.00 64 1006.6
20260506180509 71 196 3.5 10.4 0.00 0.00 0.00 63 1006.5
20260506180008 71 251 3.5 7.8 0.00 0.00 0.00 61 1006.6
20260506175508 71 171 1.7 13.0 0.00 0.00 0.00 61 1006.6
20260506175007 72 236 4.3 13.0 0.00 0.00 0.00 60 1006.6
20260506174508 72 193 2.6 11.3 0.00 0.00 0.00 60 1006.7
20260506174008 72 140 4.3 17.4 0.00 0.00 0.00 60 1006.5
20260506173508 72 233 4.3 14.8 0.00 0.00 0.00 60 1006.7
20260506173006 72 241 3.5 14.8 0.00 0.00 0.00 60 1006.4
20260506172505 73 181 3.5 12.2 0.00 0.00 0.00 60 1006.7
20260506172005 72 276 2.6 20.9 0.00 0.00 0.00 60 1006.8
20260506171507 72 183 4.3 20.9 0.00 0.00 0.00 60 1006.9
20260506171005 72 183 3.5 11.3 0.00 0.00 0.00 60 1006.9
20260506170504 72 224 3.5 13.0 0.00 0.00 0.00 61 1006.9
20260506170005 72 226 6.1 13.0 0.00 0.00 0.00 61 1007.0
20260506165502 71 177 4.3 9.6 0.00 0.00 0.00 61 1007.0
20260506165003 71 173 1.7 11.3 0.00 0.00 0.00 61 1007.2
20260506164503 71 253 3.5 10.4 0.00 0.00 0.00 61 1007.3
20260506164002 72 238 4.3 8.7 0.00 0.00 0.00 62 1007.4
20260506163600 71 237 2.6 10.4 0.00 0.00 0.00 62 1007.3
20260506163104 71 235 4.3 10.4 0.00 0.00 0.00 62 1007.4
20260506162558 71 219 3.5 13.0 0.00 0.00 0.00 62 1007.5
20260506162101 71 157 4.3 7.8 0.00 0.00 0.00 61 1007.6
20260506161557 72 164 2.6 10.4 0.00 0.00 0.00 62 1007.6
20260506161058 71 214 4.3 12.2 0.00 0.00 0.00 63 1007.8
20260506160555 71 237 4.3 10.4 0.00 0.00 0.00 63 1008.0
20260506160057 71 181 1.7 13.9 0.00 0.00 0.00 64 1008.1
20260506155557 70 212 3.5 13.9 0.00 0.00 0.00 65 1008.1
20260506155053 70 236 5.2 12.2 0.00 0.00 0.00 65 1008.2
20260506154555 70 181 1.7 13.9 0.00 0.00 0.00 65 1008.3
20260506154052 70 231 7.0 15.6 0.00 0.00 0.00 64 1008.4
20260506153552 70 241 4.3 15.6 0.00 0.00 0.00 64 1008.6
20260506153110 70 219 6.1 18.2 0.00 0.00 0.00 65 1008.6
20260506152551 70 243 2.6 18.2 0.00 0.00 0.00 64 1008.6
20260506152051 70 209 6.1 16.5 0.00 0.00 0.00 64 1008.9
20260506151552 70 214 7.0 20.0 0.00 0.00 0.00 64 1008.7
20260506151055 71 216 5.2 17.4 0.00 0.00 0.00 64 1008.6
20260506150551 70 211 6.1 18.2 0.00 0.00 0.00 65 1008.6
20260506150058 71 79 1.7 8.7 0.00 0.00 0.00 67 1008.7
20260506145550 70 136 3.5 8.7 0.00 0.00 0.00 66 1008.9
20260506145049 70 184 2.6 14.8 0.00 0.00 0.00 67 1008.9
20260506144556 70 168 2.6 14.8 0.00 0.00 0.00 68 1008.8
20260506144048 69 208 2.6 7.0 0.00 0.00 0.00 68 1008.7
20260506143549 69 133 1.7 8.7 0.00 0.00 0.00 69 1008.7
20260506143048 69 167 3.5 8.7 0.00 0.00 0.00 67 1008.8
20260506142547 70 154 1.7 10.4 0.00 0.00 0.00 68 1008.7
20260506142045 69 255 1.7 15.6 0.00 0.00 0.00 69 1008.5
20260506141545 69 172 4.3 15.6 0.00 0.00 0.00 70 1008.4
20260506141044 68 163 3.5 13.0 0.00 0.00 0.00 71 1008.6
20260506140548 68 166 1.7 11.3 0.00 0.00 0.00 72 1008.6
20260506140042 67 153 5.2 11.3 0.00 0.00 0.00 72 1008.7
20260506135540 67 210 3.5 10.4 0.00 0.00 0.00 73 1008.7
20260506135039 66 151 3.5 7.8 0.00 0.00 0.00 73 1008.9
20260506134538 66 134 1.7 9.6 0.00 0.00 0.00 74 1008.9
20260506134041 66 248 1.7 8.7 0.00 0.00 0.00 74 1009.0
20260506133537 66 179 2.6 12.2 0.00 0.00 0.00 74 1009.1
20260506133035 65 194 4.3 13.0 0.00 0.00 0.00 75 1009.1
20260506132538 65 231 3.5 13.0 0.00 0.00 0.00 75 1009.2
20260506132034 65 270 3.5 7.8 0.00 0.00 0.00 75 1009.3
20260506131539 65 223 3.5 13.0 0.00 0.00 0.00 75 1009.3
20260506131033 65 171 4.3 13.9 0.00 0.00 0.00 75 1009.2
20260506130532 65 218 2.6 13.9 0.00 0.00 0.00 75 1009.2
20260506130034 65 256 4.3 13.9 0.00 0.00 0.00 75 1009.3
20260506125532 65 153 4.3 10.4 0.00 0.00 0.00 75 1009.3
20260506125034 65 235 2.6 7.8 0.00 0.00 0.00 76 1009.2
20260506124531 64 253 3.5 8.7 0.00 0.00 0.00 76 1009.2
20260506124035 64 93 2.6 8.7 0.00 0.00 0.00 76 1009.0
20260506123531 64 139 2.6 7.0 0.00 0.00 0.00 77 1009.1
20260506123031 64 154 1.7 12.2 0.00 0.00 0.00 77 1009.1
20260506122531 64 212 3.5 9.6 0.00 0.00 0.00 77 1009.3
20260506122031 64 200 4.3 13.0 0.00 0.00 0.00 76 1009.4
20260506121530 64 181 5.2 12.2 0.00 0.00 0.00 76 1009.4
20260506121030 64 241 3.5 9.6 0.00 0.00 0.00 77 1009.4
20260506120532 63 268 3.5 9.6 0.00 0.00 0.00 79 1009.4
20260506120028 62 162 3.5 7.8 0.00 0.00 0.00 78 1009.4
20260506115531 62 224 1.7 7.8 0.00 0.00 0.00 78 1009.6
20260506115028 62 199 2.6 7.0 0.00 0.00 0.00 79 1009.6
20260506114529 62 200 2.6 9.6 0.00 0.00 0.00 79 1009.6
20260506114027 62 177 3.5 11.3 0.00 0.00 0.00 79 1009.7
20260506113528 62 193 3.5 11.3 0.00 0.00 0.00 79 1009.7
20260506113036 62 222 2.6 9.6 0.00 0.00 0.00 79 1009.7
20260506112527 62 178 2.6 9.6 0.00 0.00 0.00 79 1009.8
20260506112026 62 212 3.5 13.0 0.00 0.00 0.00 79 1009.9
20260506111528 61 238 4.3 12.2 0.00 0.00 0.00 79 1009.7
20260506111027 61 189 2.6 7.0 0.00 0.00 0.00 80 1009.6
20260506110526 61 114 0.9 7.0 0.00 0.00 0.00 81 1009.6
20260506110026 60 110 2.6 7.0 0.00 0.00 0.00 81 1009.7
20260506105525 60 228 1.7 6.1 0.00 0.00 0.00 81 1010.0
20260506105023 60 188 0.9 6.1 0.00 0.00 0.00 80 1010.0
20260506104525 60 177 1.7 8.7 0.00 0.00 0.00 80 1010.0
20260506104022 60 359 1.7 8.7 0.00 0.00 0.00 80 1009.8
20260506103525 60 208 2.6 7.0 0.00 0.00 0.00 80 1009.7
20260506103025 60 243 2.6 7.8 0.00 0.00 0.00 80 1009.7
20260506102521 60 233 1.7 7.8 0.00 0.00 0.00 80 1009.6
20260506102020 60 177 0.9 7.0 0.00 0.00 0.00 80 1009.7
20260506101519 60 231 3.5 7.8 0.00 0.00 0.00 80 1009.7
20260506101017 60 176 1.7 7.0 0.00 0.00 0.00 80 1009.7
20260506100517 60 136 0.9 5.2 0.00 0.00 0.00 80 1009.7
20260506100017 60 215 0.9 7.0 0.00 0.00 0.00 80 1009.8
20260506095516 60 172 2.6 7.0 0.00 0.00 0.00 80 1009.8
20260506095018 60 33 1.7 9.6 0.00 0.00 0.00 80 1009.7
20260506094515 60 180 2.6 8.7 0.00 0.00 0.00 80 1009.5
20260506094014 60 170 0.9 7.8 0.00 0.00 0.00 80 1009.5
20260506093514 60 291 1.7 7.8 0.00 0.00 0.00 79 1009.7
20260506093013 60 245 1.7 7.8 0.00 0.00 0.00 79 1009.7
20260506092513 60 179 1.7 6.1 0.00 0.00 0.00 79 1009.7
20260506092012 60 154 1.7 7.8 0.00 0.00 0.00 79 1009.7
20260506091512 60 187 2.6 7.0 0.00 0.00 0.00 79 1009.7
20260506091010 60 177 2.6 9.6 0.00 0.00 0.00 78 1009.5
20260506090511 60 181 4.3 9.6 0.00 0.00 0.00 78 1009.7
20260506090013 60 183 0.9 4.3 0.00 0.00 0.00 78 1009.7